TimeCDT,TemperatureF,Dew PointF,Humidity,Sea Level PressureIn,VisibilityMPH,Wind Direction,Wind SpeedMPH,Gust SpeedMPH,PrecipitationIn,Events,Conditions,WindDirDegrees,DateUTC
12:58 AM,63.0,62.1,97,30.15,8.0,Calm,Calm,-,N/A,,Clear,0,2013-08-27 05:58:00
1:58 AM,63.0,62.1,97,30.13,6.0,Calm,Calm,-,N/A,,Clear,0,2013-08-27 06:58:00
2:58 AM,62.1,61.0,96,30.13,5.0,Calm,Calm,-,0.01,,Clear,0,2013-08-27 07:58:00
3:58 AM,62.1,61.0,96,30.13,6.0,Calm,Calm,-,N/A,,Clear,0,2013-08-27 08:58:00
4:58 AM,61.0,60.1,97,30.13,6.0,Calm,Calm,-,N/A,,Clear,0,2013-08-27 09:58:00
5:47 AM,60.8,60.8,100,30.14,2.5,Calm,Calm,-,N/A,,Clear,0,2013-08-27 10:47:00
5:55 AM,60.8,60.8,100,30.14,4.0,Calm,Calm,-,N/A,,Clear,0,2013-08-27 10:55:00
5:58 AM,61.0,60.1,97,30.13,4.0,Calm,Calm,-,N/A,,Clear,0,2013-08-27 10:58:00
6:58 AM,61.0,60.1,97,30.15,4.0,Calm,Calm,-,N/A,,Clear,0,2013-08-27 11:58:00
7:58 AM,66.9,64.0,90,30.15,8.0,North,3.5,-,N/A,,Clear,350,2013-08-27 12:58:00
8:58 AM,73.0,66.9,81,30.16,10.0,Calm,Calm,-,N/A,,Clear,0,2013-08-27 13:58:00
9:58 AM,78.1,64.9,64,30.16,10.0,Calm,Calm,-,N/A,,Clear,0,2013-08-27 14:58:00
10:58 AM,81.0,60.1,49,30.15,10.0,East,4.6,-,N/A,,Scattered Clouds,90,2013-08-27 15:58:00
11:58 AM,82.0,59.0,45,30.14,10.0,Calm,Calm,-,0.00,Rain,Light Rain,0,2013-08-27 16:58:00
12:58 PM,82.9,59.0,44,30.13,10.0,Variable,3.5,-,0.00,,Mostly Cloudy,0,2013-08-27 17:58:00
1:58 PM,82.9,61.0,47,30.11,10.0,NE,6.9,-,N/A,,Scattered Clouds,50,2013-08-27 18:58:00
2:58 PM,84.0,59.0,43,30.09,10.0,East,6.9,-,N/A,,Clear,80,2013-08-27 19:58:00
3:58 PM,84.0,57.9,41,30.08,10.0,ENE,5.8,-,N/A,,Clear,70,2013-08-27 20:58:00
4:58 PM,82.0,60.1,47,30.08,10.0,East,4.6,-,N/A,,Partly Cloudy,100,2013-08-27 21:58:00
5:58 PM,82.0,61.0,49,30.07,10.0,East,3.5,-,N/A,,Mostly Cloudy,100,2013-08-27 22:58:00
6:58 PM,80.1,61.0,52,30.07,10.0,ESE,3.5,-,N/A,,Partly Cloudy,110,2013-08-27 23:58:00
7:58 PM,73.0,68.0,84,30.08,10.0,Calm,Calm,-,0.01,,Mostly Cloudy,0,2013-08-28 00:58:00
8:58 PM,71.1,66.9,87,30.09,10.0,Calm,Calm,-,N/A,,Clear,0,2013-08-28 01:58:00
9:58 PM,69.1,66.9,93,30.09,8.0,Calm,Calm,-,N/A,,Clear,0,2013-08-28 02:58:00
10:58 PM,66.9,64.9,93,30.09,7.0,Calm,Calm,-,N/A,,Clear,0,2013-08-28 03:58:00
11:58 PM,66.0,64.0,93,30.08,7.0,Calm,Calm,-,N/A,,Clear,0,2013-08-28 04:58:00